DW5963 Weather Reports


time (UTC)temp
C
wind
direction
speed
KPH
gust
KPH
rain 1hr
cm
rain 24hr
cm
rain mn
cm
humidity
%
barometer
mb
20240420154551 1 360 14.5 0.0 0.00 0.00 0.00 56 1034.4
20240420154050 1 360 16.1 0.0 0.00 0.00 0.00 57 1034.4
20240420153548 0 360 14.5 0.0 0.00 0.00 0.00 58 1034.5
20240420153048 0 360 14.5 0.0 0.00 0.00 0.00 60 1034.5
20240420152546 0 360 14.5 0.0 0.00 0.00 0.00 61 1034.6
20240420152046 0 360 16.1 0.0 0.00 0.00 0.00 62 1034.6
20240420151550 0 360 16.1 0.0 0.00 0.00 0.00 62 1034.8
20240420150544 0 360 12.9 0.0 0.00 0.00 0.00 65 1034.8
20240420150044 0 360 12.9 0.0 0.00 0.00 0.00 66 1034.7
20240420145543 0 360 12.9 0.0 0.00 0.00 0.00 67 1034.9
20240420145041 0 360 12.9 0.0 0.00 0.00 0.00 68 1034.8
20240420144540 0 360 11.3 0.0 0.00 0.00 0.00 69 1034.8
20240420144038 -1 360 11.3 0.0 0.00 0.00 0.00 70 1034.8
20240420143538 -1 360 11.3 0.0 0.00 0.00 0.00 72 1034.9
20240420143036 -1 360 9.7 0.0 0.00 0.00 0.00 74 1034.8
20240420142536 -1 360 8.0 0.0 0.00 0.00 0.00 77 1034.9
20240420142034 -1 360 9.7 0.0 0.00 0.00 0.00 77 1035.0
20240420141539 -2 360 8.0 0.0 0.00 0.00 0.00 78 1035.1
20240420140531 -2 360 6.4 0.0 0.00 0.00 0.00 80 1035.1
20240420140043 -2 360 6.4 0.0 0.00 0.00 0.00 80 1035.1
20240420135528 -2 360 6.4 0.0 0.00 0.00 0.00 81 1035.2
20240420135027 -3 360 6.4 0.0 0.00 0.00 0.00 81 1035.2
20240420134534 -3 360 6.4 0.0 0.00 0.00 0.00 82 1035.1
20240420134026 -3 360 6.4 0.0 0.00 0.00 0.00 82 1035.1
20240420133524 -3 360 6.4 0.0 0.00 0.00 0.00 83 1035.1
20240420133026 -3 360 6.4 0.0 0.00 0.00 0.00 84 1035.2
20240420132522 -4 360 8.0 0.0 0.00 0.00 0.00 84 1035.1
20240420132021 -4 360 6.4 0.0 0.00 0.00 0.00 86 1035.1
20240420131535 -5 360 4.8 0.0 0.00 0.00 0.00 87 1035.2
20240420130522 -6 360 4.8 0.0 0.00 0.00 0.00 88 1035.1
20240420130021 -6 360 4.8 0.0 0.00 0.00 0.00 88 1035.1
20240420125515 -7 360 4.8 0.0 0.00 0.00 0.00 89 1035.1
20240420125016 -7 360 3.2 0.0 0.00 0.00 0.00 89 1035.0
20240420124539 -8 360 3.2 0.0 0.00 0.00 0.00 89 1034.9
20240420124014 -9 360 3.2 0.0 0.00 0.00 0.00 88 1035.0
20240420123512 -10 360 1.6 0.0 0.00 0.00 0.00 87 1034.9
20240420123014 -10 360 1.6 0.0 0.00 0.00 0.00 87 1034.9
20240420122511 -10 360 1.6 0.0 0.00 0.00 0.00 86 1034.8
20240420122010 -10 360 3.2 0.0 0.00 0.00 0.00 86 1034.8
20240420121509 -10 360 3.2 0.0 0.00 0.00 0.00 86 1034.6
20240420120509 -10 360 3.2 0.0 0.00 0.00 0.00 86 1034.7
20240420120010 -10 360 1.6 0.0 0.00 0.00 0.00 85 1034.6
20240420115510 -10 360 0.0 0.0 0.00 0.00 0.00 85 1034.6
20240420115004 -10 360 0.0 0.0 0.00 0.00 0.00 85 1034.6
20240420114506 -10 360 0.0 0.0 0.00 0.00 0.00 85 1034.6
20240420114004 -10 360 0.0 0.0 0.00 0.00 0.00 85 1034.6
20240420113506 -10 360 0.0 0.0 0.00 0.00 0.00 84 1034.6
20240420113002 -10 360 0.0 0.0 0.00 0.00 0.00 84 1034.6
20240420112502 -9 360 0.0 0.0 0.00 0.00 0.00 84 1034.6
20240420112100 -9 360 0.0 0.0 0.00 0.00 0.00 84 1034.6
20240420112000 -9 360 0.0 0.0 0.00 0.00 0.00 84 1034.5
20240420111600 -9 360 0.0 0.0 0.00 0.00 0.00 84 1034.5
20240420110558 -8 360 1.6 0.0 0.00 0.00 0.00 84 1034.5
20240420110103 -8 360 1.6 0.0 0.00 0.00 0.00 84 1034.5
20240420105558 -8 360 1.6 0.0 0.00 0.00 0.00 84 1034.5
20240420105057 -8 360 1.6 0.0 0.00 0.00 0.00 83 1034.5
20240420104555 -8 360 3.2 0.0 0.00 0.00 0.00 84 1034.5
20240420104054 -7 360 3.2 0.0 0.00 0.00 0.00 85 1034.5
20240420103556 -8 360 4.8 0.0 0.00 0.00 0.00 85 1034.5
20240420103056 -8 360 4.8 0.0 0.00 0.00 0.00 84 1034.6
20240420102552 -8 360 4.8 0.0 0.00 0.00 0.00 84 1034.6
20240420102052 -8 360 4.8 0.0 0.00 0.00 0.00 83 1034.5
20240420101552 -8 360 4.8 0.0 0.00 0.00 0.00 83 1034.5
20240420100550 -7 360 4.8 0.0 0.00 0.00 0.00 82 1034.6
20240420100100 -7 360 4.8 0.0 0.00 0.00 0.00 83 1034.6
20240420095550 -7 360 4.8 0.0 0.00 0.00 0.00 84 1034.5
20240420095050 -7 360 4.8 0.0 0.00 0.00 0.00 83 1034.6
20240420094550 -7 360 3.2 0.0 0.00 0.00 0.00 82 1034.5
20240420094051 -7 360 3.2 0.0 0.00 0.00 0.00 83 1034.6
20240420093552 -7 360 3.2 0.0 0.00 0.00 0.00 83 1034.6
20240420093058 -7 360 3.2 0.0 0.00 0.00 0.00 83 1034.5
20240420092548 -7 360 1.6 0.0 0.00 0.00 0.00 81 1034.4
20240420092051 -7 360 0.0 0.0 0.00 0.00 0.00 81 1034.5
20240420091552 -7 360 0.0 0.0 0.00 0.00 0.00 81 1034.5
20240420090546 -6 360 3.2 0.0 0.00 0.00 0.00 81 1034.5
20240420090052 -6 360 1.6 0.0 0.00 0.00 0.00 81 1034.4
20240420085545 -6 360 3.2 0.0 0.00 0.00 0.00 80 1034.4
20240420085045 -6 360 4.8 0.0 0.00 0.00 0.00 80 1034.5
20240420084520 -6 360 4.8 0.0 0.00 0.00 0.00 80 1034.4
20240420084045 -6 360 4.8 0.0 0.00 0.00 0.00 79 1034.4
20240420083545 -5 360 4.8 0.0 0.00 0.00 0.00 78 1034.4
20240420083044 -5 360 4.8 0.0 0.00 0.00 0.00 78 1034.4
20240420082543 -5 360 4.8 0.0 0.00 0.00 0.00 78 1034.4
20240420082047 -5 360 4.8 0.0 0.00 0.00 0.00 78 1034.3
20240420081543 -4 360 3.2 0.0 0.00 0.00 0.00 77 1034.4
20240420080550 -3 360 3.2 0.0 0.00 0.00 0.00 75 1034.5
20240420080051 -3 360 4.8 0.0 0.00 0.00 0.00 75 1034.5
20240420075547 -3 360 6.4 0.0 0.00 0.00 0.00 75 1034.5
20240420075048 -3 360 6.4 0.0 0.00 0.00 0.00 75 1034.5
20240420074548 -3 360 6.4 0.0 0.00 0.00 0.00 74 1034.6
20240420074048 -2 360 6.4 0.0 0.00 0.00 0.00 73 1034.6
20240420073548 -2 360 8.0 0.0 0.00 0.00 0.00 73 1034.6
20240420073055 -2 360 9.7 0.0 0.00 0.00 0.00 72 1034.6
20240420072547 -2 360 11.3 0.0 0.00 0.00 0.00 72 1034.6
20240420072051 -2 360 12.9 0.0 0.00 0.00 0.00 72 1034.6
20240420071548 -2 360 11.3 0.0 0.00 0.00 0.00 72 1034.5
20240420070546 -2 360 11.3 0.0 0.00 0.00 0.00 73 1034.7
20240420070043 -2 360 9.7 0.0 0.00 0.00 0.00 75 1034.7
20240420065542 -2 360 8.0 0.0 0.00 0.00 0.00 76 1034.7
20240420065042 -2 360 6.4 0.0 0.00 0.00 0.00 76 1034.8
20240420064558 -3 360 6.4 0.0 0.00 0.00 0.00 77 1034.8
20240420064042 -3 360 6.4 0.0 0.00 0.00 0.00 77 1034.8
20240420063542 -3 360 6.4 0.0 0.00 0.00 0.00 77 1034.8
20240420063055 -3 360 6.4 0.0 0.00 0.00 0.00 76 1034.8
20240420062542 -3 360 6.4 0.0 0.00 0.00 0.00 75 1034.7
20240420062041 -2 360 6.4 0.0 0.00 0.00 0.00 74 1034.9
20240420061541 -2 360 8.0 0.0 0.00 0.00 0.00 74 1034.8
20240420060541 -2 360 9.7 0.0 0.00 0.00 0.00 72 1034.7
20240420060042 -1 360 11.3 0.0 0.00 0.00 0.00 71 1034.7
20240420055540 -1 360 11.3 0.0 0.00 0.00 0.00 72 1034.7
20240420055040 -1 360 12.9 0.0 0.00 0.00 0.00 72 1034.7
20240420054546 -1 360 12.9 0.0 0.00 0.00 0.00 71 1034.7
20240420054042 -1 360 14.5 0.0 0.00 0.00 0.00 71 1034.5
20240420053540 -1 360 14.5 0.0 0.00 0.00 0.00 71 1034.6
20240420053041 -1 360 12.9 0.0 0.00 0.00 0.00 72 1034.6
20240420052540 -1 360 12.9 0.0 0.00 0.00 0.00 72 1034.7
20240420052040 -1 360 12.9 0.0 0.00 0.00 0.00 72 1034.7
20240420051539 -1 360 12.9 0.0 0.00 0.00 0.00 72 1034.7
20240420050540 -1 360 16.1 0.0 0.00 0.00 0.00 72 1034.6
20240420050043 -1 360 17.7 0.0 0.00 0.00 0.00 72 1034.6
20240420045540 -1 360 17.7 0.0 0.00 0.00 0.00 71 1034.6
20240420045040 -1 360 17.7 0.0 0.00 0.00 0.00 71 1034.7
20240420044544 -1 360 17.7 0.0 0.00 0.00 0.00 71 1034.6
20240420044039 -1 360 16.1 0.0 0.00 0.00 0.00 71 1034.6
20240420043540 -1 360 14.5 0.0 0.00 0.00 0.00 71 1034.6
20240420043040 -1 360 14.5 0.0 0.00 0.00 0.00 71 1034.7
20240420042540 -1 360 14.5 0.0 0.00 0.00 0.00 71 1034.7
20240420042039 -1 360 12.9 0.0 0.00 0.00 0.00 71 1034.6
20240420041554 -1 360 11.3 0.0 0.00 0.00 0.00 71 1034.6
20240420040540 -1 360 9.7 0.0 0.00 0.00 0.00 71 1034.6
20240420040040 0 360 12.9 0.0 0.00 0.00 0.00 71 1034.6
20240420035540 0 360 14.5 0.0 0.00 0.00 0.00 71 1034.6
20240420035043 0 360 12.9 0.0 0.00 0.00 0.00 71 1034.6
20240420034539 0 360 14.5 0.0 0.00 0.00 0.00 70 1034.6
20240420034043 0 360 16.1 0.0 0.00 0.00 0.00 70 1034.6
20240420033540 0 360 16.1 0.0 0.00 0.00 0.00 70 1034.5
20240420033041 0 360 14.5 0.0 0.00 0.00 0.00 70 1034.5
20240420032538 0 360 14.5 0.0 0.00 0.00 0.00 69 1034.5
20240420032038 0 360 14.5 0.0 0.00 0.00 0.00 69 1034.4
20240420031539 0 360 14.5 0.0 0.00 0.00 0.00 69 1034.5
20240420030534 0 360 14.5 0.0 0.00 0.00 0.00 69 1034.3
20240420030039 0 360 12.9 0.0 0.00 0.00 0.00 69 1034.3
20240420025533 0 360 12.9 0.0 0.00 0.00 0.00 69 1034.2
20240420025033 0 360 12.9 0.0 0.00 0.00 0.00 69 1034.2
20240420024535 0 360 16.1 0.0 0.00 0.00 0.00 68 1034.1
20240420024035 0 360 17.7 0.0 0.00 0.00 0.00 68 1034.1
20240420023532 0 360 17.7 0.0 0.00 0.00 0.00 68 1034.1
20240420023037 0 360 19.3 0.0 0.00 0.00 0.00 68 1034.0
20240420022533 0 360 20.9 0.0 0.00 0.00 0.00 68 1033.8
20240420022031 0 360 20.9 0.0 0.00 0.00 0.00 67 1033.7
20240420021529 0 360 20.9 0.0 0.00 0.00 0.00 67 1033.6
20240420020530 0 360 20.9 0.0 0.00 0.00 0.00 67 1033.5
20240420020030 0 360 19.3 0.0 0.00 0.00 0.00 67 1033.5
20240420015529 0 360 20.9 0.0 0.00 0.00 0.00 67 1033.5
20240420015028 0 360 22.5 0.0 0.00 0.00 0.00 66 1033.4
20240420014528 0 360 22.5 0.0 0.00 0.00 0.00 66 1033.2
20240420014028 0 360 22.5 0.0 0.00 0.00 0.00 66 1033.1
20240420013527 0 360 22.5 0.0 0.00 0.00 0.00 66 1033.2
20240420013027 0 360 22.5 0.0 0.00 0.00 0.00 65 1033.0
20240420012528 0 360 22.5 0.0 0.00 0.00 0.00 65 1033.0
20240420012027 0 360 20.9 0.0 0.00 0.00 0.00 65 1033.0
20240420011533 0 360 20.9 0.0 0.00 0.00 0.00 64 1032.9
20240420010525 0 360 22.5 0.0 0.00 0.00 0.00 64 1032.9
20240420010024 0 360 24.1 0.0 0.00 0.00 0.00 64 1032.8
20240420005525 0 360 24.1 0.0 0.00 0.00 0.00 64 1032.7
20240420005024 1 360 24.1 0.0 0.00 0.00 0.00 63 1032.7
20240420004524 1 360 22.5 0.0 0.00 0.00 0.00 63 1032.8
20240420004025 1 360 22.5 0.0 0.00 0.00 0.00 63 1032.8
20240420003523 1 360 22.5 0.0 0.00 0.00 0.00 64 1032.8
20240420003024 1 360 22.5 0.0 0.00 0.00 0.00 63 1032.7
20240420002523 1 360 20.9 0.0 0.00 0.00 0.00 63 1032.8
20240420002023 1 360 22.5 0.0 0.00 0.00 0.00 63 1032.8
20240420001523 1 360 22.5 0.0 0.00 0.00 0.00 63 1032.7
20240420000525 1 360 20.9 0.0 0.00 0.00 0.00 63 1032.7
20240420000030 1 360 22.5 0.0 0.00 0.00 0.00 63 1032.7
20240419235522 1 360 22.5 0.0 0.00 0.00 0.00 64 1032.8
20240419235022 1 360 22.5 0.0 0.00 0.00 0.00 63 1032.7
20240419234522 1 360 22.5 0.0 0.00 0.00 0.00 63 1032.7
20240419234021 1 360 22.5 0.0 0.00 0.00 0.00 63 1032.6
20240419233520 1 360 24.1 0.0 0.00 0.00 0.00 64 1032.6
20240419233024 1 360 25.7 0.0 0.00 0.00 0.00 63 1032.6
20240419232524 1 360 24.1 0.0 0.00 0.00 0.00 63 1032.6
20240419232023 1 360 24.1 0.0 0.00 0.00 0.00 65 1032.5
20240419231530 1 360 24.1 0.0 0.00 0.00 0.00 65 1032.6
20240419230519 1 360 24.1 0.0 0.00 0.00 0.00 64 1032.5
20240419230030 1 360 24.1 0.0 0.00 0.00 0.00 66 1032.4
20240419225519 1 360 25.7 0.0 0.00 0.00 0.00 65 1032.4
20240419225022 1 360 25.7 0.0 0.00 0.00 0.00 66 1032.4
20240419224519 1 360 24.1 0.0 0.00 0.00 0.00 67 1032.4
20240419224018 1 360 25.7 0.0 0.00 0.00 0.00 70 1032.3
20240419223517 1 360 27.4 0.0 0.00 0.00 0.00 68 1032.4
20240419223020 2 360 25.7 0.0 0.00 0.00 0.00 70 1032.3
20240419222518 1 360 24.1 0.0 0.00 0.00 0.00 71 1032.3
20240419222019 1 360 25.7 0.0 0.00 0.00 0.00 73 1032.3
20240419221517 1 360 27.4 0.0 0.00 0.00 0.00 77 1032.4
20240419220516 1 360 27.4 0.0 0.00 0.00 0.00 75 1032.2
20240419220019 1 360 27.4 0.0 0.00 0.00 0.00 72 1032.2
20240419215515 1 360 27.4 0.0 0.00 0.00 0.00 72 1032.1
20240419215015 1 360 29.0 0.0 0.00 0.00 0.00 74 1032.1
20240419214514 1 360 29.0 0.0 0.00 0.00 0.00 73 1032.0
20240419214013 1 360 29.0 0.0 0.00 0.00 0.00 70 1032.0
20240419213516 1 360 29.0 0.0 0.00 0.00 0.00 70 1032.0
20240419213013 1 360 29.0 0.0 0.00 0.00 0.00 70 1031.9
20240419212516 1 360 29.0 0.0 0.00 0.00 0.00 69 1031.8
20240419212012 1 360 29.0 0.0 0.00 0.00 0.00 64 1031.8
20240419211512 2 360 29.0 0.0 0.00 0.00 0.00 61 1031.7
20240419210512 2 360 29.0 0.0 0.00 0.00 0.00 62 1031.6
20240419210014 2 360 29.0 0.0 0.00 0.00 0.00 63 1031.7
20240419205512 2 360 27.4 0.0 0.00 0.00 0.00 63 1031.8
20240419205013 2 360 27.4 0.0 0.00 0.00 0.00 63 1031.7
20240419204512 2 360 29.0 0.0 0.00 0.00 0.00 62 1031.7
20240419204017 2 360 30.6 0.0 0.00 0.00 0.00 63 1031.7
20240419203513 2 360 30.6 0.0 0.00 0.00 0.00 64 1031.7
20240419203011 2 360 29.0 0.0 0.00 0.00 0.00 61 1031.6
20240419202510 2 360 29.0 0.0 0.00 0.00 0.00 63 1031.6
20240419202009 1 360 32.2 0.0 0.00 0.00 0.00 63 1031.6
20240419201510 2 360 30.6 0.0 0.00 0.00 0.00 64 1031.5
20240419200509 1 360 30.6 0.0 0.00 0.00 0.00 62 1031.6
20240419200008 1 360 29.0 0.0 0.00 0.00 0.00 65 1031.6
20240419195508 1 360 27.4 0.0 0.00 0.00 0.00 64 1031.6
20240419195007 1 360 27.4 0.0 0.00 0.00 0.00 68 1031.6
20240419194522 1 360 25.7 0.0 0.00 0.00 0.00 66 1031.6
20240419194006 1 360 25.7 0.0 0.00 0.00 0.00 66 1031.6
20240419193506 1 360 27.4 0.0 0.00 0.00 0.00 68 1031.6
20240419193005 1 360 29.0 0.0 0.00 0.00 0.00 69 1031.6
20240419192506 1 360 29.0 0.0 0.00 0.00 0.00 71 1031.7
20240419192004 0 360 29.0 0.0 0.00 0.00 0.00 73 1031.7
20240419191502 0 360 29.0 0.0 0.00 0.00 0.00 72 1031.7
20240419190502 0 360 27.4 0.0 0.00 0.00 0.00 72 1031.6
20240419190003 0 360 24.1 0.0 0.00 0.00 0.00 73 1031.6
20240419185502 0 360 25.7 0.0 0.00 0.00 0.00 75 1031.6
20240419185002 -1 360 27.4 0.0 0.00 0.00 0.00 77 1031.6
20240419184601 -1 360 27.4 0.0 0.00 0.00 0.00 78 1031.7
20240419184101 0 360 25.7 0.0 0.00 0.00 0.00 77 1031.6
20240419183600 0 360 24.1 0.0 0.00 0.00 0.00 76 1031.5
20240419183109 -1 360 24.1 0.0 0.00 0.00 0.00 77 1031.6
20240419182559 -1 360 25.7 0.0 0.00 0.00 0.00 77 1031.7
20240419182059 -1 360 27.4 0.0 0.00 0.00 0.00 76 1031.6
20240419181558 -1 360 27.4 0.0 0.00 0.00 0.00 75 1031.8
20240419180558 0 360 25.7 0.0 0.00 0.00 0.00 76 1031.7
20240419180057 -1 360 25.7 0.0 0.00 0.00 0.00 77 1031.7
20240419175556 -1 360 29.0 0.0 0.00 0.00 0.00 75 1031.6
20240419175057 -1 360 29.0 0.0 0.00 0.00 0.00 76 1031.6
20240419174557 -1 360 27.4 0.0 0.00 0.00 0.00 75 1031.5
20240419174054 -1 360 27.4 0.0 0.00 0.00 0.00 76 1031.4
20240419173555 -1 360 29.0 0.0 0.00 0.00 0.00 74 1031.4
20240419173103 -1 360 30.6 0.0 0.00 0.00 0.00 75 1031.4
20240419172553 -1 360 29.0 0.0 0.00 0.00 0.00 74 1031.4
20240419172052 -1 360 29.0 0.0 0.00 0.00 0.00 76 1031.4
20240419171551 -2 360 30.6 0.0 0.00 0.00 0.00 77 1031.4
20240419170550 -2 360 30.6 0.0 0.00 0.00 0.00 75 1031.4
20240419170110 -2 360 30.6 0.0 0.00 0.00 0.00 75 1031.3
20240419165549 -2 360 29.0 0.0 0.00 0.00 0.00 74 1031.2
20240419165047 -2 360 29.0 0.0 0.00 0.00 0.00 76 1031.2
20240419164547 -2 360 29.0 0.0 0.00 0.00 0.00 76 1031.2
20240419164047 -2 360 27.4 0.0 0.00 0.00 0.00 77 1031.2
20240419163546 -2 360 24.1 0.0 0.00 0.00 0.00 77 1031.2
20240419163046 -2 360 22.5 0.0 0.00 0.00 0.00 78 1031.1
20240419162544 -3 360 24.1 0.0 0.00 0.00 0.00 78 1031.2
20240419162047 -2 360 24.1 0.0 0.00 0.00 0.00 77 1031.2
20240419161552 -2 360 25.7 0.0 0.00 0.00 0.00 76 1031.1
20240419160544 -2 360 27.4 0.0 0.00 0.00 0.00 77 1031.0
20240419160044 -2 360 27.4 0.0 0.00 0.00 0.00 75 1031.0
20240419155543 -2 360 30.6 0.0 0.00 0.00 0.00 74 1030.9
20240419155043 -2 360 32.2 0.0 0.00 0.00 0.00 75 1031.0